TimeEDT,TemperatureF,Dew PointF,Humidity,Sea Level PressureIn,VisibilityMPH,Wind Direction,Wind SpeedMPH,Gust SpeedMPH,PrecipitationIn,Events,Conditions,WindDirDegrees,DateUTC
12:53 AM,48.0,42.1,80,29.90,10.0,SW,5.8,-,N/A,,Clear,230,2013-06-04 04:53:00
1:53 AM,46.9,41.0,80,29.91,10.0,SW,9.2,-,N/A,,Clear,220,2013-06-04 05:53:00
2:53 AM,48.0,41.0,77,29.92,10.0,WSW,8.1,-,N/A,,Clear,240,2013-06-04 06:53:00
3:53 AM,46.9,41.0,80,29.93,10.0,SW,10.4,-,N/A,,Clear,230,2013-06-04 07:53:00
4:53 AM,45.0,41.0,86,29.95,10.0,SW,8.1,-,N/A,,Clear,220,2013-06-04 08:53:00
5:53 AM,46.0,41.0,83,29.96,10.0,WSW,10.4,-,N/A,,Clear,240,2013-06-04 09:53:00
6:53 AM,50.0,42.1,74,29.98,10.0,WSW,5.8,-,N/A,,Clear,240,2013-06-04 10:53:00
7:53 AM,53.1,41.0,64,29.99,10.0,West,9.2,19.6,N/A,,Clear,280,2013-06-04 11:53:00
8:53 AM,54.0,39.9,59,30.01,10.0,West,12.7,20.7,N/A,,Mostly Cloudy,270,2013-06-04 12:53:00
9:53 AM,57.0,41.0,55,30.03,10.0,NW,12.7,-,N/A,,Mostly Cloudy,310,2013-06-04 13:53:00
10:53 AM,57.9,41.0,53,30.04,10.0,WNW,13.8,20.7,N/A,,Mostly Cloudy,300,2013-06-04 14:53:00
11:53 AM,59.0,42.1,53,30.05,10.0,West,11.5,-,N/A,,Mostly Cloudy,280,2013-06-04 15:53:00
12:53 PM,61.0,43.0,52,30.05,10.0,West,10.4,19.6,N/A,,Partly Cloudy,280,2013-06-04 16:53:00
1:53 PM,64.0,45.0,50,30.04,10.0,West,11.5,18.4,N/A,,Clear,270,2013-06-04 17:53:00
2:53 PM,64.0,44.1,48,30.04,10.0,NW,10.4,18.4,N/A,,Scattered Clouds,320,2013-06-04 18:53:00
3:53 PM,66.0,43.0,43,30.04,10.0,WNW,6.9,-,N/A,,Clear,290,2013-06-04 19:53:00
4:53 PM,66.9,44.1,44,30.05,10.0,NNW,6.9,-,N/A,,Clear,330,2013-06-04 20:53:00
5:53 PM,64.9,42.1,43,30.06,10.0,WNW,9.2,-,N/A,,Scattered Clouds,290,2013-06-04 21:53:00
6:53 PM,64.9,43.0,45,30.06,10.0,Calm,Calm,-,N/A,,Overcast,0,2013-06-04 22:53:00
7:53 PM,64.0,45.0,50,30.08,10.0,Calm,Calm,-,N/A,,Overcast,0,2013-06-04 23:53:00
8:53 PM,63.0,45.0,52,30.09,10.0,Calm,Calm,-,N/A,,Overcast,0,2013-06-05 00:53:00
9:53 PM,55.9,45.0,67,30.12,10.0,SSW,6.9,-,N/A,,Overcast,210,2013-06-05 01:53:00
10:53 PM,55.0,44.1,67,30.13,10.0,WSW,4.6,-,N/A,,Clear,240,2013-06-05 02:53:00
11:53 PM,53.1,44.1,71,30.14,10.0,Calm,Calm,-,N/A,,Clear,0,2013-06-05 03:53:00